Location: Kielce
(50.8833°N, 20.6167°E)
Time: 23:32:30
(UTC+02:00)

SR - Pass Details

Date: 29 April 2021
Orbit: 573 x 882 km, 66.7° (Epoch: 16 May)

Event Time Altitude Azimuth Distance (km) Brightness Sun altitude
Rises 06:12:34 0° 212° (SSW) 3,356 ? 7.8°
Reaches altitude 10° 06:14:57 10° 211° (SSW) 2,459 ? 8.1°
Maximum altitude 06:20:43 82° 126° (SE) 887 ? 9.0°
Drops below altitude 10° 06:26:41 10° 39° (NE) 2,549 ? 9.9°
Sets 06:29:12 0° 39° (NE) 3,487 ? 10.3°
